NWS Regional Weather Roundup - New England Area

000
ASUS41 KBOX 221610
RWRBOX

REGIONAL WEATHER ROUNDUP
NATIONAL WEATHER SERVICE BOSTON/NORTON MA
1200 PM EDT MON OCT 22 2018

NOTE:  "FAIR" INDICATES FEW OR NO CLOUDS BELOW 12,000 FEET WITH NO
SIGNIFICANT WEATHER AND/OR OBSTRUCTIONS TO VISIBILITY.

MAZALL-221700-
EASTERN MASSACHUSETTS

CITY           SKY/WX    TMP DP  RH WIND       PRES   REMARKS
BOSTON         FAIR      49  25  39 W14G22    30.16F
BEVERLY        FAIR      46  24  42 W12       30.15F
LAWRENCE       FAIR      48  24  39 SW12      30.18S
BEDFORD        FAIR      48  26  42 W9        30.15F
BLUE HILL        N/A     44  27  51 W12G21    30.14F
NORWOOD        FAIR      50  28  42 SW9       30.17F
MARSHFIELD     FAIR      48  27  43 VRB5G13   30.17F
PLYMOUTH       FAIR      50  26  39 W9        30.19F
TAUNTON        FAIR      48  26  42 W6        30.19F
NEW BEDFORD    FAIR      48  29  47 W10       30.20S
$$

MAZALL-221700-
CAPE COD AND THE ISLANDS

CITY           SKY/WX    TMP DP  RH WIND       PRES   REMARKS
FALMOUTH       FAIR      46  27  46 W10G18    30.21S
HYANNIS        FAIR      48  27  44 W8        30.18F
CHATHAM        FAIR      47  25  42 VRB3G16   30.20F
PROVINCETOWN   FAIR      45  28  51 W9        30.19F
NANTUCKET      FAIR      47  27  45 NW14      30.21F
MARTHAS VNYRD  FAIR      49  30  48 W13       30.21F
$$

MAZALL-221700-
CENTRAL AND WESTERN MASSACHUSETTS

CITY           SKY/WX    TMP DP  RH WIND       PRES   REMARKS
WORCESTER      FAIR      44  27  51 W14G20    30.15S
FITCHBURG      FAIR      47  24  40 NW14G23   30.16F
ORANGE         FAIR      46  25  43 W10G18    30.17F
SPRINGFIELD    PTSUNNY   46  30  53 SW10      30.18S
WESTFIELD      CLOUDY    46  29  51 NW8       30.18F
NORTH ADAMS    CLOUDY    42  31  64 SW9       30.16F
PITTSFIELD     CLOUDY    42  28  57 SW7       30.14F
$$

RIZALL-221700-
RHODE ISLAND

CITY           SKY/WX    TMP DP  RH WIND       PRES   REMARKS
PROVIDENCE     FAIR      48  29  47 W14       30.20F
NEWPORT        FAIR      48  28  46 W12G17    30.20F
BLOCK ISLAND   CLOUDY    47  33  58 W9        30.22F
SMITHFIELD     PTSUNNY   47  29  49 W9G17     30.18F
WESTERLY       CLOUDY    50  28  42 SW10      30.22F
$$

CTZALL-221700-
CONNECTICUT

CITY           SKY/WX    TMP DP  RH WIND       PRES   REMARKS
BRADLEY INTL   PTSUNNY   45  29  53 SW6       30.20F
HARTFORD       CLOUDY    45  31  58 S7        30.22S
BRIDGEPORT     CLOUDY    48  31  51 W10G18    30.23F
DANBURY        CLOUDY    44  33  65 VRB7      30.22F
GROTON         CLOUDY    49  32  52 SW9       30.22S
NEW HAVEN      CLOUDY    47  33  58 W8        30.23S
CHESTER        PTSUNNY   48  28  46 W6        30.21S
MERIDEN        CLOUDY    46  31  55 CALM      30.22F
WILLIMANTIC    PTSUNNY   46  31  55 W9        30.21F
OXFORD         PTSUNNY   43  32  65 W7        30.21S
$$

MEZ002-015-021-024-NHZ003-005-008-011-012-014-VTZ005-008-221700-
NORTHERN NEW ENGLAND

CITY           SKY/WX    TMP DP  RH WIND       PRES   REMARKS
PORTLAND ME    FAIR      45  21  38 NW9       30.13S
BANGOR ME      PTSUNNY   40  17  39 NW8G26    30.08R
CONCORD NH     FAIR      45  22  40 NW13G21   30.14F
MANCHESTER NH  FAIR      46  21  37 W8        30.14F
NASHUA NH      FAIR      46  24  42 NW6       30.15F
PORTSMOUTH NH  MOSUNNY   45  19  35 NW18      30.12F
JAFFREY NH     FAIR      43  25  49 W10       30.13F
KEENE NH       CLOUDY    45  26  47 SW12      30.15F
BURLINGTON VT  PTSUNNY   40  21  46 SW3       30.14S
MT. WASHINGTON SNOW      10  10 100 W38G47      N/A  VSB 1/16WCI -14
$$

NYZ052-076-221700-
EASTERN NEW YORK

CITY           SKY/WX    TMP DP  RH WIND       PRES   REMARKS
ALBANY         PTSUNNY   46  32  58 S6        30.19S
NEW YORK CITY  PTSUNNY   50  31  48 SW12      30.24F
$$

ANZALL-221700-
MARINE OBSERVATIONS

STATION/POSITION TIME  TEMP    WIND        PRES    VSBY  WAVE
                       AIR SEA DIR/SP/G                  HT/PER
                 (UTC) (F)     (DEG/KT/KT) (MB)    (MI)  (FT/S)
BOSTON BUOY      1550   43 56  240/ 10/ 16 1021.1F         2/ 3
BUZZARDS BAY     1500   44     290/ 14/ 17 1023.8F
NANTUCKET SOUND  1550   44 58  270/ 12/ 17 1022.9F         1/ 3
MASS BAY-STELLWA 1504   41 55  290/ 12/ 16 1020.8S  1 7/8  2/ 3
ISLE OF SHOALS   1500   40     290/ 16/ 18 1020.4F
S OF BLOCK IS    1543      62                N/A           3/ 4
$$

......................KEY.........................
  SKY/WX - SKY CONDITION/PRESENT WEATHER
  TMP    - TEMPERATURE IN FAHRENHEIT
  DWPT   - DEWPOINT IN FAHRENHEIT
  RH     - RELATIVE HUMIDITY IN PERCENT
  WIND   - DIRECTION AND SPEED IN MPH
  PRES   - MEAN SEA LEVEL PRESSURE IN INCHES OF HG
  WCI    - WIND CHILL INDEX
  VSB    - VISIBILITY IN MILES
  HX     - HEAT INDEX
  TC     - TEMPERATURE IN CELSIUS
  VRB    - VARIABLE WIND DIRECTION
  N/A    - NOT AVAILABLE

NWS BOX Regional Weather Roundup - New England Area